[[{"header":{"parameterUnit":"m.s-1","parameterCategory":2,"la1":30.2991,"la2":30.254,"lo1":-89.0895,"lo2":-89.0444,"dy":0.0017,"dx":0.0017,"nx":28,"ny":28,"refTime":"2024-08-14T03:00:00:Z","depth":"0","parameterNumber":2,"parameterNumberName":"U-component_of_CURRENTS"},"data":[0,0,0,0,0,0,0,0,0,0,0,0,0,0,0,0,0,0,0,0,0,0,0,0,0,0,0,0,0,0,0,0,0,0,0,0,0,0,0,0,0,0,0,0,0,0,0,0,0,0,0,0,0,0,0,0,0,0,0.441,0.4411,0,0.4423,0.4422,0.4421,0.4342,0.4341,0.434,0.4339,0.4278,0.4278,0.4277,0,0,0,0,0,0,0,0,0,0,0,0,0,0.4065,0.4072,0.441,0.4411,0.4413,0.4423,0.4422,0.4421,0.4342,0.4341,0.4339,0.4338,0.4279,0.4278,0.4277,0,0,0,0,0,0,0,0,0,0,0,0,0,0.4148,0.4074,0.4409,0.4384,0.4383,0.4424,0.4422,0.4421,0.4342,0.4341,0.4339,0.4338,0.4279,0.4278,0.4277,0.4302,0,0,0.4274,0.4274,0,0,0,0,0,0,0,0,0.4144,0.4159,0.4386,0.4386,0.4385,0.4391,0.4279,0.4382,0.4343,0.4343,0.4339,0.4337,0.4319,0.4315,0.4303,0.43,0.4297,0.4274,0.4273,0.4273,0.4273,0,0,0,0,0,0,0,0.4138,0.4157,0.4401,0.4389,0.4388,0.4287,0.4298,0.4296,0.4328,0.4343,0.4341,0.4364,0.4316,0.4304,0.4301,0.4296,0.4274,0.4273,0.4273,0.4272,0.4435,0.444,0,0,0,0,0,0,0.4181,0.4154,0.4401,0.4403,0.4273,0.4297,0.4308,0.438,0.433,0.4325,0.4366,0.4361,0.4306,0.4302,0.4298,0.4414,0.4273,0.4272,0.4272,0.443,0.4436,0.4442,0,0,0,0,0,0,0.4174,0.4204,0.4401,0.4285,0.4305,0.4308,0.4386,0.4381,0.4371,0.435,0.4341,0.4363,0.4305,0.43,0.431,0.4408,0.4272,0.4271,0.4425,0.4432,0.4439,0.4589,0,0,0,0,0,0,0.4165,0.4203,0.4255,0.4291,0.4314,0.4461,0.4389,0.4383,0.4395,0.4388,0.4346,0.4338,0.4303,0.4312,0.4309,0.4404,0.427,0.4418,0.4428,0.4437,0.4578,0.4601,0.462,0,0,0,0,0,0.4153,0.429,0.4259,0.4288,0.4393,0.4465,0.4467,0.4449,0.4397,0.4424,0.4379,0.4339,0.4371,0.4313,0.431,0.4407,0.4414,0.4425,0.4436,0.4569,0.4596,0.462,0,0,0,0,0,0,0.4177,0.4296,0.4263,0.4427,0.444,0.4457,0.45,0.446,0.4443,0.4439,0.4366,0.4359,0.4426,0.4393,0.4332,0.4489,0.4401,0.4412,0.4504,0.453,0.4551,0.4559,0.4269,0,0,0,0,0,0.4204,0.4324,0.4374,0.4486,0.4511,0.4485,0.4504,0.45,0.4499,0.4488,0.4456,0.4448,0.4472,0.4474,0.4495,0.4547,0.4556,0.4623,0.4644,0.4662,0.4673,0.4778,0.4809,0.4478,0.4478,0.4478,0,0,0.4243,0.4318,0.4384,0.4493,0.4498,0.4557,0.4492,0.4566,0.4599,0.4489,0.4526,0.452,0.4506,0.4584,0.4613,0.456,0.4767,0.4676,0.469,0.4691,0.4792,0.4824,0.4853,0.4485,0.4484,0.4483,0,0,0.4366,0.4443,0.4557,0.4585,0.4639,0.4641,0.4664,0.4692,0.4692,0.4726,0.4681,0.4723,0.4726,0.4756,0.4761,0.4912,0.4884,0.4935,0.5032,0.5135,0.5162,0.5186,0.5255,0.5284,0.4935,0.4935,0.4935,0,0.4396,0.4531,0.459,0.4673,0.4696,0.468,0.4747,0.4774,0.4792,0.4798,0.4771,0.4821,0.4822,0.4905,0.4972,0.4963,0.4993,0.4925,0.5161,0.5184,0.5206,0.527,0.53,0.4944,0.4943,0.4942,0.4941,0,0.4573,0.4648,0.4721,0.4809,0.4852,0.4924,0.496,0.4998,0.4983,0.4982,0.5061,0.5067,0.5085,0.5129,0.509,0.5257,0.522,0.518,0.5086,0.5248,0.5306,0.5335,0.4956,0.4953,0.495,0.4948,0,0,0.4718,0.4821,0.4837,0.4829,0.492,0.4962,0.5059,0.5111,0.5128,0.5192,0.522,0.5325,0.5308,0.532,0.5309,0.5405,0.5606,0.5364,0.5365,0.5415,0.5819,0.5719,0.5739,0.56,0.5606,0.561,0.58,0,0.48,0.4929,0.4981,0.5048,0.5087,0.5105,0.5164,0.5217,0.5241,0.528,0.5342,0.5376,0.5388,0.5392,0.5511,0.5559,0.5685,0.5556,0.5669,0.5672,0.555,0.5771,0.5466,0.5603,0.5827,0.5832,0.5835,0,0.4927,0.4984,0.5064,0.5081,0.5104,0.5151,0.5194,0.5253,0.5331,0.5349,0.5429,0.5442,0.5593,0.5568,0.5804,0.5716,0.5806,0.5856,0.5864,0.5733,0.5626,0.5478,0.5645,0.5441,0.5878,0.5875,0.5871,0,0.4918,0.5023,0.5057,0.5076,0.5134,0.516,0.5196,0.5265,0.5283,0.5389,0.5398,0.5564,0.5612,0.5792,0.5906,0.5874,0.6137,0.6095,0.6105,0.6096,0.5839,0.5798,0.5801,0.6313,0.6312,0.6312,0.6311,0,0.4959,0.4979,0.5043,0.5055,0.5079,0.5138,0.5161,0.5219,0.5282,0.5301,0.5422,0.5469,0.5674,0.5814,0.5955,0.6113,0.6195,0.6177,0.6167,0.5884,0.5847,0.5654,0.5565,0.6319,0.6317,0.6316,0.6315,0,0.4908,0.496,0.4981,0.5044,0.5059,0.5073,0.5111,0.5119,0.5201,0.5238,0.527,0.5426,0.5618,0.5797,0.6057,0.6133,0.6126,0.6341,0.5977,0.5923,0.5728,0.5659,0.5571,0.5428,0.6412,0.6411,0.641,0,0.4887,0.4892,0.4943,0.4943,0.4962,0.4987,0.4988,0.5067,0.5083,0.5202,0.5217,0.5393,0.5503,0.5828,0.5987,0.6219,0.6063,0.6065,0.5976,0.5725,0.5643,0.5484,0.5358,0.5704,0.5697,0.5692,0.5688,0,0.4812,0.4821,0.4837,0.4849,0.4849,0.4841,0.4869,0.4864,0.4956,0.4997,0.5082,0.518,0.5451,0.5533,0.5799,0.5912,0.5719,0.5965,0.5803,0.5196,0.4924,0.4772,0.5555,0.564,0.5645,0.5649,0.5651,0.5653,0.4726,0.4717,0.473,0.473,0.4724,0.4684,0.4631,0.4673,0.4677,0.4724,0.4908,0.4989,0.5107,0.5433,0.5492,0.5346,0.5457,0.523,0.5205,0.5099,0.4833,0.5514,0.552,0.5524,0.5527,0.553,0.5533,0,0.4603,0.461,0.4608,0.4579,0.4513,0.4559,0.4524,0.4444,0.4402,0.4557,0.4631,0.4653,0.468,0.4761,0.4722,0.4602,0.4447,0.4476,0.4148,0.4099,0.4778,0.4612,0.4297,0.4298,0.4298,0.4298,0.4298,0.4299,0.4536,0.4493,0.4506,0.4378,0.4347,0.4191,0.414,0.4061,0.4112,0.4067,0.4081,0.418,0.4231,0.4198,0.4004,0.3917,0.3649,0.3496,0.3583,0.3989,0.4055,0.4118,0.3941,0.3491,0.349,0.2698,0.2691,0.2686]},{"header":{"parameterUnit":"m.s-1","parameterCategory":2,"la1":30.2991,"la2":30.254,"lo1":-89.0895,"lo2":-89.0444,"dy":0.0017,"dx":0.0017,"nx":28,"ny":28,"refTime":"2024-08-14T03:00:00:Z","depth":"0","parameterNumber":3,"parameterNumberName":"V-component_of_CURRENTS"},"data":[0,0,0,0,0,0,0,0,0,0,0,0,0,0,0,0,0,0,0,0,0,0,0,0,0,0,0,0,0,0,0,0,0,0,0,0,0,0,0,0,0,0,0,0,0,0,0,0,0,0,0,0,0,0,0,0,0,0,0.0465,0.0465,0,0.0432,0.0432,0.0431,0.031,0.0307,0.0305,0.0302,0.0197,0.0196,0.0196,0,0,0,0,0,0,0,0,0,0,0,0,0,0.0347,0.035,0.0465,0.0465,0.0465,0.0432,0.0432,0.0431,0.031,0.0307,0.0304,0.0301,0.0197,0.0196,0.0196,0,0,0,0,0,0,0,0,0,0,0,0,0,0.0362,0.0351,0.0465,0.0403,0.0397,0.0433,0.0432,0.0431,0.0311,0.0307,0.0303,0.03,0.0197,0.0196,0.0196,0.0266,0,0,0.0194,0.0193,0,0,0,0,0,0,0,0,0.0362,0.0366,0.0412,0.0407,0.0401,0.0374,0.0352,0.0373,0.0312,0.034,0.0302,0.0298,0.0254,0.0249,0.0247,0.0261,0.0256,0.0193,0.0193,0.0193,0.0192,0,0,0,0,0,0,0,0.0361,0.0367,0.0449,0.0412,0.0405,0.0351,0.0349,0.0355,0.0315,0.0337,0.0329,0.0332,0.0249,0.0248,0.0244,0.0255,0.0193,0.0193,0.0192,0.0192,0.0324,0.0328,0,0,0,0,0,0,0.038,0.0367,0.045,0.0448,0.0375,0.0357,0.0354,0.0384,0.0316,0.0304,0.0335,0.0326,0.0251,0.0245,0.024,0.0332,0.0193,0.0192,0.0192,0.032,0.0325,0.0329,0,0,0,0,0,0,0.0378,0.0389,0.0451,0.0406,0.0411,0.0364,0.0397,0.0385,0.0377,0.0316,0.03,0.0338,0.0248,0.0241,0.0263,0.0325,0.0192,0.0191,0.0315,0.0321,0.0327,0.0508,0,0,0,0,0,0,0.0376,0.039,0.0413,0.041,0.0414,0.0507,0.04,0.0387,0.0386,0.0374,0.0314,0.03,0.0245,0.0265,0.0263,0.0322,0.019,0.031,0.0318,0.0325,0.0497,0.0519,0.0538,0,0,0,0,0,0.0372,0.0468,0.0415,0.0424,0.0451,0.0511,0.0511,0.0458,0.039,0.0428,0.0374,0.0301,0.0309,0.0269,0.0264,0.0325,0.0307,0.0316,0.0324,0.0487,0.0515,0.0537,0,0,0,0,0,0,0.0445,0.0464,0.0406,0.0501,0.0502,0.0492,0.053,0.0478,0.0465,0.0446,0.0356,0.0343,0.0385,0.0344,0.03,0.0388,0.0296,0.0305,0.0422,0.0447,0.0467,0.0512,0.019,0,0,0,0,0,0.0467,0.0529,0.0521,0.059,0.0601,0.0555,0.0565,0.0535,0.0524,0.0512,0.0463,0.0426,0.0427,0.0424,0.0418,0.0474,0.0441,0.0511,0.0532,0.055,0.0587,0.0621,0.0648,0.0358,0.0358,0.0358,0,0,0.0511,0.0529,0.056,0.0606,0.0597,0.0648,0.0554,0.0606,0.0633,0.0509,0.0539,0.0501,0.0459,0.0515,0.053,0.0482,0.0609,0.0561,0.0576,0.0605,0.0633,0.0661,0.0686,0.0364,0.0363,0.0362,0,0,0.0644,0.0649,0.0731,0.0746,0.0759,0.0744,0.0763,0.0756,0.074,0.0778,0.069,0.0707,0.0691,0.0686,0.0677,0.0821,0.0718,0.0799,0.094,0.0972,0.0996,0.1017,0.0978,0.0994,0.0808,0.0809,0.0809,0,0.0679,0.077,0.0767,0.0838,0.085,0.0793,0.086,0.087,0.0863,0.0868,0.0815,0.0825,0.0788,0.0856,0.09,0.0871,0.0837,0.0841,0.0999,0.1019,0.1037,0.0993,0.1008,0.0818,0.0817,0.0816,0.0815,0,0.086,0.0905,0.0971,0.1016,0.1048,0.1112,0.1105,0.1131,0.1091,0.1075,0.1129,0.1097,0.1095,0.1094,0.104,0.1152,0.1065,0.1019,0.0933,0.1078,0.102,0.1033,0.0832,0.0829,0.0826,0.0824,0,0,0.0986,0.1069,0.1083,0.1087,0.1133,0.1174,0.1253,0.1294,0.1326,0.1337,0.1391,0.1419,0.1377,0.1369,0.1308,0.1348,0.1433,0.1248,0.1245,0.1204,0.1451,0.1353,0.1355,0.1402,0.1407,0.141,0.1346,0,0.1095,0.1227,0.1254,0.1346,0.139,0.1372,0.1439,0.1471,0.1477,0.1526,0.1527,0.1556,0.1486,0.1481,0.1527,0.146,0.1481,0.1452,0.1323,0.1319,0.1211,0.1374,0.1288,0.1223,0.1358,0.136,0.1361,0,0.1238,0.1294,0.1402,0.1444,0.1467,0.1524,0.158,0.1636,0.1703,0.1709,0.1762,0.1734,0.1807,0.1716,0.1724,0.1699,0.1607,0.1549,0.1544,0.1408,0.1248,0.1109,0.1239,0.0944,0.1379,0.1378,0.1376,0,0.1273,0.1384,0.1453,0.1474,0.1544,0.1586,0.1623,0.1688,0.1738,0.1823,0.1869,0.1924,0.1946,0.1908,0.1807,0.1761,0.179,0.1694,0.1514,0.15,0.1386,0.1358,0.1221,0.1709,0.1709,0.1709,0.1709,0,0.1351,0.1401,0.1469,0.1502,0.1579,0.1619,0.1709,0.1752,0.1849,0.1943,0.1957,0.2046,0.2001,0.1999,0.1884,0.1761,0.1847,0.1585,0.1516,0.1441,0.1419,0.1119,0.1003,0.1706,0.1707,0.1707,0.1708,0,0.1357,0.141,0.1478,0.1561,0.1589,0.1637,0.1741,0.1814,0.1896,0.2029,0.2067,0.2152,0.2162,0.2078,0.2005,0.184,0.1573,0.1648,0.1533,0.1454,0.0982,0.0881,0.0742,0.0648,0.1437,0.1434,0.1433,0,0.1368,0.1404,0.1494,0.1531,0.1566,0.1646,0.1712,0.1817,0.191,0.2102,0.2182,0.2242,0.233,0.2181,0.1926,0.1712,0.1502,0.1411,0.133,0.0991,0.0828,0.076,0.0687,0.122,0.1216,0.1214,0.1211,0,0.1358,0.1386,0.1434,0.1518,0.1587,0.1689,0.18,0.1895,0.2055,0.2193,0.2394,0.2495,0.2361,0.2165,0.1838,0.1638,0.1198,0.134,0.1052,0.073,0.0591,0.0453,0.1165,0.1186,0.1189,0.1191,0.1192,0.1193,0.1323,0.1346,0.141,0.1493,0.1587,0.1741,0.1843,0.2005,0.2198,0.2463,0.2541,0.2734,0.2354,0.1933,0.1625,0.0895,0.1004,0.064,0.0564,0.0538,0.0416,0.1048,0.0955,0.0956,0.0957,0.0958,0.0959,0,0.1266,0.1311,0.1384,0.1502,0.1619,0.1692,0.1907,0.2051,0.23,0.2576,0.2775,0.2678,0.2169,0.1628,0.0699,0.0205,0.0068,-0.0071,-0.02,-0.0219,0.0374,0.0326,0.0019,0.0019,0.0019,0.002,0.002,0.002,0.1233,0.1278,0.1338,0.1506,0.161,0.1803,0.1945,0.2178,0.2412,0.2714,0.2846,0.2936,0.2412,0.0825,-0.0307,-0.054,-0.0816,-0.0889,-0.0975,-0.0638,-0.0579,-0.0522,-0.0597,-0.1093,-0.1095,-0.1559,-0.1564,-0.1568]}],[{"header":{"parameterUnit":"m.s-1","parameterCategory":2,"la1":30.2991,"la2":30.254,"lo1":-89.0895,"lo2":-89.0444,"dy":0.0017,"dx":0.0017,"nx":28,"ny":28,"refTime":"2024-08-14T03:00:00:Z","depth":"2","parameterNumber":2,"parameterNumberName":"U-component_of_CURRENTS"},"data":[0,0,0,0,0,0,0,0,0,0,0,0,0,0,0,0,0,0,0,0,0,0,0,0,0,0,0,0,0,0,0,0,0,0,0,0,0,0,0,0,0,0,0,0,0,0,0,0,0,0,0,0,0,0,0,0,0,0,0.2669,0.2671,0,0.2852,0.2854,0.2855,0.2844,0.2842,0.284,0.2838,0.3029,0.3036,0.3043,0,0,0,0,0,0,0,0,0,0,0,0,0,0.2613,0.2612,0.2668,0.2671,0.2674,0.2852,0.2854,0.2856,0.2844,0.2842,0.2839,0.2837,0.3027,0.3035,0.3044,0,0,0,0,0,0,0,0,0,0,0,0,0,0.2694,0.2611,0.2668,0.2695,0.27,0.2851,0.2854,0.2856,0.2845,0.2842,0.2839,0.2836,0.3024,0.3034,0.3045,0.3172,0,0,0.3077,0.3081,0,0,0,0,0,0,0,0,0.2689,0.2695,0.2688,0.2693,0.2699,0.2828,0.2905,0.2964,0.2846,0.2783,0.2838,0.2834,0.2969,0.2984,0.3016,0.3181,0.3189,0.3078,0.3084,0.3089,0.3092,0,0,0,0,0,0,0,0.2683,0.2689,0.2734,0.2692,0.2698,0.2803,0.2807,0.2917,0.2886,0.2788,0.2789,0.2821,0.2971,0.3006,0.3021,0.3192,0.3078,0.3087,0.3093,0.3098,0.3374,0.3375,0,0,0,0,0,0,0.2661,0.2682,0.2729,0.2741,0.2694,0.2806,0.2811,0.2784,0.2885,0.2899,0.2824,0.282,0.2989,0.3008,0.3027,0.3222,0.3089,0.3099,0.3105,0.3373,0.3374,0.3375,0,0,0,0,0,0,0.2658,0.2661,0.2722,0.2725,0.274,0.2808,0.278,0.279,0.2888,0.2913,0.2925,0.2919,0.2988,0.3012,0.313,0.3227,0.3103,0.3113,0.3372,0.3373,0.3375,0.3587,0,0,0,0,0,0,0.2654,0.2657,0.2698,0.2721,0.2739,0.2833,0.2784,0.2796,0.2911,0.291,0.3,0.3009,0.2987,0.3114,0.3141,0.3239,0.3121,0.337,0.3372,0.3374,0.3579,0.3596,0.3611,0,0,0,0,0,0.2651,0.2707,0.2696,0.2708,0.2767,0.2837,0.2858,0.2893,0.292,0.2971,0.3009,0.301,0.3142,0.3127,0.3157,0.326,0.3369,0.3372,0.3374,0.3572,0.3593,0.361,0,0,0,0,0,0,0.2715,0.2713,0.2701,0.2755,0.2802,0.2838,0.2938,0.296,0.3041,0.3068,0.307,0.3084,0.3197,0.32,0.3182,0.3326,0.3241,0.325,0.3381,0.3401,0.3417,0.3451,0.313,0,0,0,0,0,0.2745,0.277,0.2785,0.2835,0.2879,0.293,0.2996,0.301,0.3063,0.3101,0.3125,0.3166,0.3227,0.3293,0.3311,0.3464,0.343,0.3523,0.354,0.3554,0.3591,0.3546,0.3563,0.3383,0.3383,0.3383,0,0,0.275,0.2793,0.2785,0.2854,0.2911,0.2968,0.2962,0.3077,0.3134,0.3117,0.3219,0.3236,0.3267,0.3368,0.3423,0.3402,0.3599,0.3557,0.357,0.36,0.355,0.3568,0.3584,0.3384,0.3384,0.3384,0,0,0.2798,0.2853,0.2881,0.2953,0.3068,0.3088,0.3138,0.319,0.3242,0.333,0.332,0.3411,0.3476,0.3529,0.3569,0.3707,0.366,0.3692,0.3858,0.3814,0.383,0.3843,0.3886,0.3901,0.373,0.373,0.373,0,0.2865,0.2867,0.2914,0.3007,0.3089,0.3144,0.3215,0.3286,0.3353,0.3423,0.3366,0.3501,0.3553,0.3734,0.3765,0.376,0.3722,0.3802,0.384,0.3852,0.3861,0.3901,0.3915,0.3741,0.3739,0.3738,0.3737,0,0.2852,0.2956,0.3022,0.3107,0.3194,0.33,0.3372,0.3462,0.3512,0.3546,0.3694,0.3734,0.3809,0.385,0.3876,0.4011,0.3961,0.3846,0.3807,0.3894,0.3929,0.394,0.3756,0.3752,0.3749,0.3746,0,0,0.2808,0.2975,0.3014,0.309,0.3282,0.3323,0.3492,0.362,0.3718,0.3783,0.3903,0.405,0.4065,0.4111,0.4155,0.4183,0.4276,0.4077,0.4069,0.4151,0.4226,0.4031,0.4024,0.4134,0.4136,0.4137,0.4248,0,0.283,0.2954,0.3055,0.3207,0.3287,0.3454,0.3581,0.372,0.381,0.3921,0.4064,0.4156,0.4167,0.4226,0.4267,0.4229,0.4301,0.4261,0.4103,0.4103,0.394,0.4027,0.3753,0.381,0.4258,0.4259,0.426,0,0.2818,0.29,0.3024,0.3262,0.3316,0.3419,0.364,0.3769,0.3995,0.4068,0.4223,0.4271,0.445,0.4366,0.4422,0.4372,0.4355,0.4324,0.4322,0.4073,0.3924,0.3777,0.3811,0.4277,0.4276,0.4275,0.4273,0,0.2735,0.2933,0.3017,0.3097,0.3317,0.3452,0.3597,0.3822,0.3953,0.4184,0.4247,0.4405,0.4475,0.4452,0.4433,0.4411,0.4408,0.434,0.4193,0.4182,0.3888,0.3845,0.439,0.439,0.439,0.439,0.4389,0,0.2774,0.2885,0.2975,0.306,0.3202,0.3376,0.3587,0.3776,0.3988,0.4129,0.4316,0.4389,0.4473,0.4485,0.4456,0.4342,0.4415,0.4262,0.4185,0.3956,0.392,0.4246,0.4228,0.4394,0.4393,0.4392,0.4391,0,0.279,0.2843,0.2998,0.3163,0.3214,0.3347,0.3631,0.3721,0.3943,0.413,0.421,0.4384,0.4398,0.4456,0.4431,0.4343,0.4266,0.4223,0.4002,0.3895,0.4102,0.4093,0.4104,0.4098,0.4092,0.4088,0.4084,0,0.2852,0.2892,0.3057,0.3093,0.3213,0.3376,0.3475,0.3726,0.3817,0.408,0.4127,0.4257,0.4265,0.4192,0.4107,0.405,0.417,0.375,0.3664,0.4143,0.4068,0.4068,0.4066,0.3416,0.3407,0.34,0.3394,0,0.2958,0.3005,0.3061,0.311,0.3206,0.3314,0.3478,0.3528,0.3774,0.384,0.3887,0.3908,0.3957,0.3734,0.3704,0.3626,0.3724,0.3596,0.4115,0.3491,0.3489,0.3417,0.344,0.3329,0.3336,0.3341,0.3344,0.3347,0.303,0.3056,0.3045,0.3113,0.3172,0.3197,0.3261,0.3294,0.3347,0.3396,0.3532,0.3457,0.3487,0.3262,0.313,0.3094,0.3344,0.3208,0.3234,0.3266,0.3126,0.3108,0.2861,0.2864,0.2868,0.287,0.2873,0,0.2986,0.296,0.3012,0.3038,0.3026,0.3125,0.3169,0.3087,0.2995,0.3046,0.3007,0.2735,0.2609,0.2702,0.2543,0.2492,0.251,0.2404,0.2431,0.2496,0.2554,0.2379,0.1916,0.1913,0.191,0.1907,0,0,0.2937,0.287,0.2871,0.2823,0.286,0.2813,0.2814,0.2627,0.2591,0.2358,0.2315,0.2459,0.2598,0.2212,0.2151,0.2022,0.2246,0.1946,0.2719,0.2817,0.2871,0.3025,0.2829,0,0,0,0,0]},{"header":{"parameterUnit":"m.s-1","parameterCategory":2,"la1":30.2991,"la2":30.254,"lo1":-89.0895,"lo2":-89.0444,"dy":0.0017,"dx":0.0017,"nx":28,"ny":28,"refTime":"2024-08-14T03:00:00:Z","depth":"2","parameterNumber":3,"parameterNumberName":"V-component_of_CURRENTS"},"data":[0,0,0,0,0,0,0,0,0,0,0,0,0,0,0,0,0,0,0,0,0,0,0,0,0,0,0,0,0,0,0,0,0,0,0,0,0,0,0,0,0,0,0,0,0,0,0,0,0,0,0,0,0,0,0,0,0,0,-0.006,-0.0061,0,-0.0129,-0.013,-0.0131,-0.0152,-0.0152,-0.0151,-0.0151,-0.0303,-0.0307,-0.0312,0,0,0,0,0,0,0,0,0,0,0,0,0,-0.0028,-0.0029,-0.006,-0.0061,-0.0061,-0.0129,-0.013,-0.0131,-0.0152,-0.0152,-0.0151,-0.015,-0.0301,-0.0307,-0.0312,0,0,0,0,0,0,0,0,0,0,0,0,0,-0.0066,-0.0029,-0.006,-0.0078,-0.0081,-0.0129,-0.013,-0.0131,-0.0152,-0.0152,-0.0151,-0.015,-0.03,-0.0306,-0.0313,-0.0371,0,0,-0.0334,-0.0337,0,0,0,0,0,0,0,0,-0.0064,-0.0067,-0.0075,-0.0077,-0.008,-0.0129,-0.0175,-0.0215,-0.0153,-0.0127,-0.0151,-0.015,-0.0252,-0.0263,-0.0279,-0.0378,-0.0385,-0.0334,-0.0339,-0.0342,-0.0343,0,0,0,0,0,0,0,-0.0061,-0.0065,-0.0089,-0.0076,-0.0079,-0.0111,-0.0115,-0.0183,-0.0196,-0.013,-0.0131,-0.0135,-0.0254,-0.0272,-0.0283,-0.0387,-0.0334,-0.034,-0.0345,-0.0347,-0.0505,-0.0505,0,0,0,0,0,0,-0.0045,-0.0062,-0.0087,-0.0091,-0.0067,-0.0112,-0.0116,-0.0116,-0.0194,-0.0204,-0.0136,-0.0136,-0.0261,-0.0275,-0.0289,-0.0351,-0.0342,-0.0348,-0.0352,-0.0505,-0.0505,-0.0505,0,0,0,0,0,0,-0.0044,-0.0046,-0.0084,-0.0077,-0.0084,-0.0112,-0.0112,-0.0118,-0.0148,-0.0197,-0.0209,-0.0161,-0.0261,-0.0279,-0.0329,-0.0358,-0.0351,-0.0357,-0.0504,-0.0505,-0.0505,-0.0484,0,0,0,0,0,0,-0.0043,-0.0045,-0.0053,-0.0076,-0.0083,-0.0103,-0.0113,-0.0119,-0.015,-0.0151,-0.0223,-0.0235,-0.0262,-0.0318,-0.0335,-0.0367,-0.0363,-0.0504,-0.0505,-0.0505,-0.0485,-0.0484,-0.0483,0,0,0,0,0,-0.0041,-0.0049,-0.0053,-0.0056,-0.0088,-0.0103,-0.011,-0.013,-0.0152,-0.0157,-0.0195,-0.0234,-0.0331,-0.0323,-0.0344,-0.0378,-0.0504,-0.0504,-0.0505,-0.0485,-0.0484,-0.0483,0,0,0,0,0,0,-0.0037,-0.0053,-0.0057,-0.0068,-0.0079,-0.0105,-0.0122,-0.0143,-0.0181,-0.0191,-0.024,-0.0254,-0.0307,-0.0343,-0.0333,-0.042,-0.0424,-0.0428,-0.0402,-0.0402,-0.0401,-0.0355,-0.0368,0,0,0,0,0,-0.0039,-0.0051,-0.0062,-0.0071,-0.0078,-0.0107,-0.0124,-0.0135,-0.0166,-0.0183,-0.0221,-0.0272,-0.0325,-0.036,-0.04,-0.0462,-0.0457,-0.0494,-0.0493,-0.0492,-0.0466,-0.0462,-0.0458,-0.0505,-0.0505,-0.0505,0,0,-0.004,-0.0051,-0.0057,-0.0072,-0.0089,-0.0093,-0.0116,-0.0138,-0.0152,-0.0198,-0.0232,-0.0273,-0.0337,-0.0384,-0.0414,-0.0421,-0.048,-0.0492,-0.0491,-0.0465,-0.0462,-0.0457,-0.0452,-0.0506,-0.0506,-0.0506,0,0,-0.0033,-0.0055,-0.0055,-0.0067,-0.0086,-0.0101,-0.0108,-0.0132,-0.0154,-0.0188,-0.0224,-0.0264,-0.0347,-0.0381,-0.042,-0.0443,-0.0469,-0.0475,-0.0447,-0.0445,-0.044,-0.0436,-0.0437,-0.0433,-0.0482,-0.0481,-0.0481,0,-0.0034,-0.0025,-0.0057,-0.0058,-0.006,-0.0102,-0.0091,-0.0133,-0.0166,-0.0168,-0.019,-0.0268,-0.034,-0.039,-0.0402,-0.0443,-0.0438,-0.0451,-0.0441,-0.0437,-0.0433,-0.0435,-0.0431,-0.0481,-0.0481,-0.0481,-0.0481,0,-0.0008,-0.0015,-0.0018,-0.0027,-0.0039,-0.004,-0.008,-0.01,-0.0132,-0.0146,-0.0181,-0.0251,-0.0282,-0.0337,-0.0391,-0.0412,-0.0417,-0.0435,-0.0441,-0.0427,-0.0431,-0.0427,-0.0479,-0.0479,-0.048,-0.048,0,0,0.002,0.0009,0.0005,0.0023,-0.0017,-0.0009,-0.0051,-0.0058,-0.0047,-0.0106,-0.0069,-0.0204,-0.0214,-0.0256,-0.0327,-0.035,-0.0358,-0.0386,-0.0386,-0.0379,-0.0347,-0.0405,-0.0407,-0.037,-0.0369,-0.0368,-0.0365,0,0.0056,0.0102,0.006,0.0084,0.0114,0.0055,0.004,0.0015,-0.0007,0.0018,-0.0066,-0.0062,-0.0199,-0.0194,-0.0253,-0.0308,-0.0343,-0.0356,-0.0367,-0.0367,-0.0414,-0.0403,-0.0361,-0.0358,-0.0362,-0.0361,-0.036,0,0.0097,0.0131,0.0184,0.0193,0.0196,0.0182,0.0196,0.0179,0.0163,0.0161,0.0135,0.0099,0.0036,-0.0052,-0.017,-0.0168,-0.0259,-0.0314,-0.0316,-0.0366,-0.0417,-0.0371,-0.0351,-0.0354,-0.0354,-0.0355,-0.0355,0,0.0181,0.0205,0.0268,0.0269,0.0268,0.0261,0.0251,0.0233,0.0265,0.028,0.0353,0.0249,0.0259,0.0122,-0.0058,-0.0093,-0.015,-0.0207,-0.0347,-0.0352,-0.0314,-0.0318,-0.0268,-0.0268,-0.0268,-0.0268,-0.0268,0,0.0246,0.0273,0.0317,0.0334,0.04,0.0366,0.0417,0.0392,0.044,0.0547,0.0446,0.0528,0.031,0.0236,0.0037,-0.0145,-0.0089,-0.0325,-0.0349,-0.031,-0.0314,-0.0306,-0.031,-0.0268,-0.0268,-0.0268,-0.0268,0,0.0295,0.0324,0.0376,0.041,0.0426,0.0467,0.0511,0.0585,0.0608,0.076,0.0793,0.076,0.0658,0.0417,0.0226,0.0007,-0.0171,-0.0252,-0.0203,-0.0224,-0.0397,-0.04,-0.0389,-0.0391,-0.0392,-0.0394,-0.0395,0,0.0315,0.0363,0.0433,0.0494,0.0492,0.0564,0.0633,0.0656,0.0769,0.0918,0.1034,0.0987,0.0958,0.062,0.0253,-0.0092,-0.015,-0.0278,-0.0363,-0.0381,-0.0406,-0.0407,-0.0408,-0.0303,-0.0303,-0.0303,-0.0304,0,0.0352,0.0374,0.0444,0.0579,0.0655,0.0766,0.0872,0.0993,0.11,0.1236,0.1405,0.1393,0.1071,0.0723,0.0225,-0.0005,-0.0234,-0.0297,-0.028,-0.03,-0.0306,-0.0329,-0.0331,-0.0306,-0.0306,-0.0305,-0.0305,-0.0305,0.0376,0.044,0.0557,0.0683,0.0801,0.0983,0.11,0.1268,0.1466,0.1661,0.1628,0.1585,0.1178,0.0518,0.0156,-0.0229,-0.025,-0.0402,-0.0398,-0.0394,-0.0405,-0.0416,-0.0439,-0.0439,-0.0439,-0.044,-0.044,0,0.0445,0.0539,0.0665,0.0837,0.1011,0.104,0.1293,0.1441,0.1709,0.1777,0.1835,0.1438,0.1037,0.0601,0.0025,-0.0342,-0.0348,-0.0436,-0.0365,-0.0361,-0.0359,-0.0366,-0.0389,-0.039,-0.039,-0.0391,0,0,0.0495,0.0644,0.0725,0.1016,0.1142,0.1385,0.1544,0.1748,0.1846,0.1891,0.1808,0.1605,0.11,0.0686,0.0221,-0.0071,-0.0128,-0.0125,-0.0135,0.0007,0.0015,-0.0316,-0.0322,0,0,0,0,0]}],[{"header":{"parameterUnit":"m.s-1","parameterCategory":2,"la1":30.2991,"la2":30.254,"lo1":-89.0895,"lo2":-89.0444,"dy":0.0017,"dx":0.0017,"nx":28,"ny":28,"refTime":"2024-08-14T03:00:00:Z","depth":"4","parameterNumber":2,"parameterNumberName":"U-component_of_CURRENTS"},"data":[0,0,0,0,0,0,0,0,0,0,0,0,0,0,0,0,0,0,0,0,0,0,0,0,0,0,0,0,0,0,0,0,0,0,0,0,0,0,0,0,0,0,0,0,0,0,0,0,0,0,0,0,0,0,0,0,0,0,0.1175,0.1175,0,0.1188,0.1189,0.119,0.1156,0.1154,0.1152,0.1151,0.1249,0.1253,0.1257,0,0,0,0,0,0,0,0,0,0,0,0,0,0.1287,0.1285,0.1175,0.1175,0.1174,0.1188,0.1189,0.119,0.1156,0.1154,0.1152,0.115,0.1248,0.1253,0.1258,0,0,0,0,0,0,0,0,0,0,0,0,0,0.1271,0.1284,0.1175,0.1153,0.115,0.1188,0.1189,0.119,0.1157,0.1154,0.1151,0.1149,0.1246,0.1252,0.1259,0.1353,0,0,0.1278,0.1281,0,0,0,0,0,0,0,0,0.1271,0.1267,0.1157,0.1154,0.1151,0.116,0.1264,0.1246,0.1158,0.1163,0.1151,0.1148,0.1224,0.1232,0.1251,0.1358,0.1362,0.1279,0.1283,0.1286,0.1287,0,0,0,0,0,0,0,0.1272,0.1268,0.1189,0.1156,0.1153,0.1198,0.1192,0.1261,0.1217,0.1163,0.1158,0.1147,0.1224,0.1245,0.1253,0.1363,0.1279,0.1284,0.1288,0.1291,0.1469,0.147,0,0,0,0,0,0,0.1248,0.1268,0.1188,0.1188,0.1197,0.1197,0.1191,0.1167,0.1214,0.1215,0.1149,0.1145,0.1235,0.1246,0.1257,0.1351,0.1286,0.1292,0.1295,0.1469,0.147,0.147,0,0,0,0,0,0,0.125,0.124,0.1188,0.1223,0.1218,0.1196,0.1171,0.1169,0.1205,0.1201,0.1206,0.1188,0.1234,0.1248,0.1335,0.1355,0.1295,0.13,0.1467,0.1469,0.147,0.1552,0,0,0,0,0,0,0.1253,0.1241,0.1244,0.122,0.1214,0.1208,0.1173,0.1171,0.1197,0.1193,0.1237,0.1241,0.1233,0.1326,0.1342,0.1362,0.1305,0.1466,0.1468,0.147,0.1549,0.1556,0.1563,0,0,0,0,0,0.1257,0.1227,0.1244,0.1235,0.1209,0.1208,0.1212,0.1194,0.1202,0.122,0.126,0.124,0.1344,0.1335,0.1352,0.1375,0.1466,0.1468,0.1469,0.1545,0.1555,0.1563,0,0,0,0,0,0,0.1262,0.122,0.1237,0.1196,0.1215,0.1199,0.12,0.1224,0.1275,0.1274,0.1295,0.1304,0.1384,0.1375,0.1363,0.1423,0.1386,0.1392,0.1437,0.1446,0.1453,0.1445,0.1311,0,0,0,0,0,0.1273,0.1253,0.124,0.1223,0.1221,0.124,0.1249,0.1246,0.127,0.1289,0.135,0.1379,0.1408,0.1424,0.1465,0.1528,0.1538,0.1536,0.1544,0.155,0.1552,0.1627,0.1642,0.1477,0.1477,0.1477,0,0,0.1268,0.1249,0.1237,0.1228,0.1234,0.1237,0.1238,0.1243,0.1268,0.1298,0.1392,0.1443,0.1438,0.1494,0.1522,0.1486,0.1598,0.1553,0.1558,0.1556,0.1631,0.1647,0.1662,0.1478,0.1478,0.1478,0,0,0.1246,0.1236,0.122,0.1229,0.1238,0.1249,0.1263,0.1302,0.1333,0.1427,0.1443,0.1517,0.1587,0.1586,0.1582,0.166,0.1656,0.1658,0.1674,0.1748,0.1763,0.1776,0.1795,0.1809,0.1635,0.1635,0.1635,0,0.1247,0.1225,0.1224,0.1216,0.1226,0.1258,0.1267,0.1297,0.1384,0.1447,0.1451,0.1607,0.1615,0.1662,0.1661,0.1679,0.1707,0.1646,0.1761,0.1774,0.1786,0.1803,0.1818,0.1639,0.1639,0.1638,0.1638,0,0.1215,0.1213,0.1197,0.1205,0.1231,0.1231,0.1266,0.1335,0.1406,0.1474,0.1606,0.1655,0.1736,0.1736,0.1714,0.1797,0.1785,0.1788,0.1745,0.1808,0.182,0.1835,0.1645,0.1644,0.1642,0.1641,0,0,0.1153,0.1173,0.1172,0.1199,0.1225,0.1241,0.1288,0.1368,0.1434,0.155,0.1659,0.172,0.1806,0.1805,0.1822,0.1858,0.1955,0.1851,0.1853,0.1881,0.2098,0.194,0.1939,0.1998,0.2001,0.2004,0.2067,0,0.1136,0.1143,0.116,0.1192,0.12,0.1249,0.1303,0.1389,0.1487,0.161,0.1684,0.1802,0.1805,0.1865,0.1911,0.1967,0.1999,0.1935,0.2022,0.2023,0.1886,0.1953,0.2014,0.2077,0.208,0.2083,0.2084,0,0.1087,0.1114,0.1147,0.1215,0.1225,0.126,0.1377,0.1436,0.1579,0.1659,0.1793,0.1884,0.1983,0.1965,0.2098,0.2069,0.2085,0.2104,0.2108,0.1941,0.1892,0.2003,0.211,0.2108,0.2106,0.2104,0.2102,0,0.1056,0.1094,0.1141,0.1153,0.1234,0.1282,0.1347,0.1481,0.1563,0.1723,0.1812,0.1962,0.2048,0.2126,0.2182,0.2164,0.23,0.2279,0.2145,0.2132,0.222,0.2205,0.2357,0.2357,0.2357,0.2357,0.2356,0,0.1001,0.1029,0.1136,0.1148,0.1223,0.1298,0.1406,0.1474,0.162,0.1736,0.1864,0.196,0.2102,0.22,0.2223,0.223,0.2348,0.2157,0.215,0.2247,0.2235,0.2229,0.2213,0.2359,0.2358,0.2358,0.2357,0,0.0928,0.0993,0.1041,0.1156,0.12,0.1259,0.1407,0.1483,0.1629,0.177,0.1832,0.2001,0.2122,0.2219,0.233,0.2267,0.2293,0.2254,0.2335,0.2331,0.2057,0.2045,0.2113,0.2108,0.2104,0.2101,0.2098,0,0.0883,0.0904,0.1038,0.1079,0.1128,0.1239,0.131,0.1462,0.1541,0.1785,0.1828,0.2011,0.2107,0.2143,0.223,0.226,0.2225,0.2204,0.2133,0.2052,0.204,0.2034,0.2027,0.2091,0.209,0.2089,0.2088,0,0.0796,0.086,0.0923,0.1006,0.108,0.1167,0.128,0.1331,0.1526,0.1674,0.1809,0.1895,0.1999,0.2068,0.2095,0.2112,0.2209,0.2161,0.2169,0.2102,0.2027,0.2017,0.2015,0.2074,0.2076,0.2077,0.2078,0,0.0736,0.0766,0.0858,0.0921,0.1007,0.1065,0.1145,0.1255,0.1361,0.1623,0.1668,0.1851,0.2003,0.1991,0.2031,0.2025,0.1983,0.1904,0.1924,0.194,0.185,0.1727,0.1686,0,0,0,0,0,0.068,0.0711,0.076,0.0823,0.0899,0.0953,0.1107,0.1198,0.1392,0.1447,0.1561,0.1663,0.1749,0.1825,0.1781,0.1909,0.196,0.1844,0.1871,0.1996,0.2012,0.1919,0,0,0,0,0,0,0.0632,0.0693,0.0729,0.0728,0.0751,0.0826,0.0926,0.1065,0.1104,0.1316,0.1369,0.1528,0.1621,0.1752,0.1737,0.1756,0.1731,0.1948,0.1942,0.1987,0.2002,0.2015,0.1924,0,0,0,0,0]},{"header":{"parameterUnit":"m.s-1","parameterCategory":2,"la1":30.2991,"la2":30.254,"lo1":-89.0895,"lo2":-89.0444,"dy":0.0017,"dx":0.0017,"nx":28,"ny":28,"refTime":"2024-08-14T03:00:00:Z","depth":"4","parameterNumber":3,"parameterNumberName":"V-component_of_CURRENTS"},"data":[0,0,0,0,0,0,0,0,0,0,0,0,0,0,0,0,0,0,0,0,0,0,0,0,0,0,0,0,0,0,0,0,0,0,0,0,0,0,0,0,0,0,0,0,0,0,0,0,0,0,0,0,0,0,0,0,0,0,0.0083,0.0083,0,0.0076,0.0076,0.0075,0.01,0.0101,0.0102,0.0103,0.0027,0.0024,0.0021,0,0,0,0,0,0,0,0,0,0,0,0,0,0.0043,0.0044,0.0083,0.0083,0.0083,0.0076,0.0076,0.0075,0.01,0.0101,0.0102,0.0103,0.0028,0.0024,0.0021,0,0,0,0,0,0,0,0,0,0,0,0,0,0.0048,0.0044,0.0083,0.0097,0.0098,0.0076,0.0076,0.0075,0.0099,0.0101,0.0102,0.0104,0.0029,0.0025,0.002,-0.0038,0,0,0.0007,0.0005,0,0,0,0,0,0,0,0,0.0048,0.0049,0.0095,0.0096,0.0098,0.0093,0.0034,0.0035,0.0099,0.0095,0.0103,0.0105,0.0044,0.0038,0.003,-0.0042,-0.0045,0.0006,0.0003,0.0002,0.0,0,0,0,0,0,0,0,0.0048,0.0049,0.0077,0.0095,0.0097,0.0079,0.0081,0.0034,0.0057,0.0096,0.0098,0.0102,0.0044,0.0034,0.0028,-0.0046,0.0006,0.0002,-0.0,-0.0002,-0.0132,-0.0133,0,0,0,0,0,0,0.0057,0.0049,0.0077,0.0077,0.008,0.0079,0.0082,0.009,0.0059,0.0057,0.0101,0.0104,0.0041,0.0033,0.0025,-0.0011,0.0002,-0.0003,-0.0005,-0.0131,-0.0132,-0.0133,0,0,0,0,0,0,0.0057,0.006,0.0077,0.0065,0.0067,0.0079,0.0088,0.009,0.009,0.0065,0.0061,0.0103,0.0042,0.0031,-0.0017,-0.0015,-0.0005,-0.0009,-0.013,-0.0131,-0.0133,-0.0106,0,0,0,0,0,0,0.0055,0.006,0.0066,0.0066,0.0068,0.0078,0.0087,0.0088,0.0092,0.0095,0.0064,0.0058,0.0042,-0.001,-0.0021,-0.0021,-0.0012,-0.0129,-0.0131,-0.0132,-0.0106,-0.0106,-0.0106,0,0,0,0,0,0.0054,0.0064,0.0066,0.007,0.0078,0.0079,0.0077,0.0088,0.009,0.0093,0.0061,0.006,-0.0026,-0.0015,-0.0028,-0.0028,-0.0129,-0.013,-0.0132,-0.0105,-0.0106,-0.0106,0,0,0,0,0,0,0.0052,0.0068,0.0071,0.0085,0.0087,0.0085,0.0092,0.0086,0.0063,0.0066,0.0035,0.0026,-0.0014,-0.0034,-0.0021,-0.007,-0.0073,-0.0077,-0.0048,-0.0049,-0.0049,-0.0005,-0.0016,0,0,0,0,0,0.0053,0.0063,0.0072,0.008,0.0089,0.0085,0.0085,0.009,0.0073,0.0066,0.0038,0.0005,-0.0035,-0.005,-0.0088,-0.0126,-0.0151,-0.0131,-0.0131,-0.013,-0.0104,-0.0172,-0.0176,-0.0139,-0.0139,-0.0139,0,0,0.0055,0.0062,0.0069,0.0079,0.0085,0.0106,0.009,0.0098,0.0105,0.0056,0.0045,-0.0005,-0.0049,-0.0084,-0.0101,-0.0096,-0.0157,-0.0133,-0.0132,-0.0105,-0.0175,-0.0178,-0.0181,-0.014,-0.014,-0.0139,0,0,0.0076,0.0073,0.0101,0.0105,0.0118,0.0115,0.0119,0.0116,0.0109,0.0078,0.0045,-0.0003,-0.0058,-0.0086,-0.0109,-0.0137,-0.0164,-0.015,-0.0106,-0.0174,-0.0177,-0.018,-0.0222,-0.0229,-0.014,-0.014,-0.014,0,0.0083,0.0119,0.0105,0.0135,0.0149,0.0126,0.0162,0.0143,0.0116,0.0104,0.0086,-0.0009,-0.0053,-0.0094,-0.0097,-0.0134,-0.017,-0.0101,-0.0173,-0.0176,-0.018,-0.0222,-0.023,-0.0139,-0.0139,-0.0139,-0.0139,0,0.0136,0.0162,0.0177,0.0211,0.0213,0.0235,0.0221,0.0208,0.0184,0.0162,0.0106,0.0028,-0.0016,-0.0049,-0.008,-0.0124,-0.0142,-0.0174,-0.0167,-0.0181,-0.0226,-0.0235,-0.0137,-0.0137,-0.0138,-0.0138,0,0,0.0174,0.0213,0.0221,0.0248,0.0259,0.0268,0.027,0.0268,0.0267,0.0209,0.0191,0.0106,0.0061,0.0032,-0.0031,-0.0087,-0.0156,-0.0129,-0.0133,-0.0159,-0.0291,-0.0275,-0.0283,-0.0207,-0.0209,-0.021,-0.0314,0,0.0232,0.0301,0.0301,0.0357,0.0395,0.0368,0.0373,0.0353,0.0313,0.0279,0.0191,0.0145,0.0092,0.0059,-0.0007,-0.0126,-0.0177,-0.0123,-0.0281,-0.0285,-0.026,-0.0292,-0.0214,-0.032,-0.0322,-0.0324,-0.0325,0,0.0303,0.0337,0.0411,0.0438,0.0453,0.0474,0.0473,0.0473,0.0414,0.0377,0.0314,0.0237,0.0149,0.0095,-0.0081,-0.0047,-0.0148,-0.024,-0.0248,-0.0238,-0.0284,-0.0304,-0.0341,-0.034,-0.0339,-0.0338,-0.0337,0,0.0351,0.0413,0.0473,0.0487,0.0514,0.0532,0.0544,0.0511,0.0511,0.0442,0.0418,0.0298,0.0227,0.0085,-0.009,-0.0093,-0.0292,-0.0326,-0.0401,-0.0401,-0.0394,-0.039,-0.0438,-0.0438,-0.0438,-0.0437,-0.0437,0,0.0415,0.0461,0.0504,0.0536,0.0596,0.0593,0.0638,0.0616,0.0591,0.0589,0.048,0.0427,0.0217,0.0076,-0.0075,-0.0258,-0.0281,-0.0385,-0.0428,-0.0382,-0.0375,-0.0401,-0.0395,-0.0441,-0.044,-0.044,-0.0439,0,0.0454,0.049,0.0557,0.0604,0.0625,0.0667,0.0716,0.0735,0.0705,0.0691,0.0673,0.0514,0.0326,0.0124,-0.0128,-0.0233,-0.0413,-0.0469,-0.0384,-0.0422,-0.0478,-0.047,-0.0559,-0.056,-0.056,-0.056,-0.056,0,0.0478,0.0523,0.0604,0.0648,0.0676,0.0742,0.0786,0.0793,0.0803,0.0739,0.072,0.0551,0.0425,0.0095,-0.0124,-0.0399,-0.0437,-0.051,-0.0504,-0.0458,-0.0491,-0.0483,-0.0474,-0.0561,-0.0561,-0.0561,-0.0561,0,0.0511,0.0547,0.0593,0.0688,0.0754,0.0826,0.0879,0.0896,0.0891,0.0869,0.0756,0.0583,0.0366,0.0099,-0.0113,-0.0312,-0.0454,-0.0514,-0.0515,-0.051,-0.0461,-0.0492,-0.0483,-0.0562,-0.0562,-0.0562,-0.0561,0,0.0524,0.0563,0.0632,0.0709,0.0799,0.0868,0.0904,0.0909,0.0923,0.0851,0.081,0.0583,0.0443,0.0142,-0.0056,-0.0247,-0.0297,-0.0341,-0.0352,-0.0354,-0.0265,-0.0171,-0.0213,0,0,0,0,0,0.0532,0.0573,0.0643,0.0729,0.0819,0.0872,0.094,0.0961,0.0962,0.0898,0.0859,0.0662,0.0352,0.02,0.0012,-0.0073,-0.0336,-0.0298,-0.0392,-0.0567,-0.0566,-0.0495,0,0,0,0,0,0,0.0537,0.0603,0.0634,0.073,0.079,0.0888,0.0938,0.0942,0.09,0.087,0.0697,0.0628,0.0312,0.0454,0.0007,-0.0053,-0.0132,-0.0446,-0.0449,-0.0567,-0.0566,-0.0566,-0.0492,0,0,0,0,0]}]]